Location: Unspecified
(35.6961°N, 0.0000°E)
Time: 11:53:53
(UTC+00:00)

Vanguard 3 - Visible Passes

Search period start: 24 May 2019 00:00
Search period end: 03 June 2019 00:00
Orbit: 508 x 3263 km, 33.3° (Epoch: 23 May)

Date Brightness Start Highest point End Pass type
(mag) Time Alt. Az. Time Alt. Az. Time Alt. Az.
24 May 9.2 00:52:22 10° W 01:03:34 66° SSW 01:21:48 10° ESE visible
24 May 10.1 03:05:38 10° W 03:18:55 39° SSW 03:36:12 10° SSE visible
24 May 8.1 21:27:41 10° WSW 21:34:17 74° S 21:46:29 10° E visible
24 May 8.8 23:38:39 10° W 23:47:54 75° S 00:04:22 10° ESE visible
25 May 9.6 01:50:44 10° W 02:02:46 50° SSW 02:20:42 10° SE visible
25 May 10.6 04:06:14 10° W 04:17:58 24° SW 04:31:44 10° S visible
25 May 7.8 20:14:52 10° WSW 20:20:11 57° SSE 20:29:29 10° E visible
25 May 8.4 22:25:16 10° W 22:32:47 79° S 22:46:43 10° E visible
26 May 9.1 00:36:36 10° W 00:46:54 61° SSW 01:04:07 10° SE visible
26 May 10.1 02:49:52 10° W 03:01:56 34° SSW 03:18:03 10° SSE visible
26 May 7.9 21:12:10 10° WSW 21:18:14 75° S 21:29:23 10° E visible
26 May 8.7 23:23:00 10° W 23:31:31 70° SSW 23:46:53 10° ESE visible
27 May 9.6 01:34:58 10° W 01:46:00 44° SSW 02:02:44 10° SE visible
27 May 10.6 03:51:05 10° WSW 04:01:01 19° SW 04:12:46 10° S visible
27 May 7.5 19:59:19 10° WSW 20:04:14 60° SSE 20:12:41 10° E visible
27 May 8.2 22:09:43 10° W 22:16:38 76° S 22:23:57 27° ESE visible
28 May 9.1 00:20:56 10° W 00:36:32 37° SE 00:46:22 10° SE visible
28 May 10.0 02:41:33 26° SW 02:45:06 29° SSW 02:59:36 10° SSE visible
28 May 7.7 20:56:40 10° W 21:02:16 75° S 21:11:49 12° E visible
28 May 8.5 23:07:25 10° W 23:15:13 65° SSW 23:16:15 62° SSE visible
29 May 10.2 01:19:23 10° W 01:35:31 29° S 01:44:36 10° SSE visible
29 May 10.5 03:40:22 14° SW 03:44:14 15° SW 03:53:02 10° S visible
29 May 7.3 19:43:48 10° WSW 19:48:22 63° SSE 19:56:00 10° E visible
29 May 8.0 21:54:12 10° W 22:00:34 72° S 22:05:06 36° ESE visible
30 May 9.4 00:05:21 10° W 00:28:30 10° SE 00:28:32 10° SE visible
30 May 10.5 02:33:18 20° S 02:33:18 20° S 02:40:50 10° SSE visible
30 May 7.5 20:41:11 10° W 20:46:22 74° S 20:54:18 14° E visible
30 May 8.4 22:51:53 10° W 22:58:46 58° SSW 22:58:46 58° SSW visible
31 May 10.4 01:25:43 11° SSE 01:25:43 11° SSE 01:26:18 10° SSE visible
31 May 10.9 03:30:27 10° SSW 03:30:27 10° SSW 03:31:22 10° SSW visible
31 May 7.1 19:28:18 10° WSW 19:32:35 65° S 19:39:26 10° E visible
31 May 7.9 21:38:44 10° W 21:44:35 67° S 21:48:10 38° ESE visible
31 May 9.5 23:49:53 10° W 23:52:40 24° WSW 23:52:40 24° WSW visible
01 Jun 7.3 20:25:45 10° W 20:30:32 72° S 20:37:40 13° E visible
01 Jun 8.4 22:36:25 10° W 22:42:10 49° SSW 22:42:10 49° SSW visible
02 Jun 7.7 21:23:16 10° W 21:28:38 60° S 21:31:47 37° SE visible
02 Jun 9.7 23:34:33 10° W 23:36:18 18° WSW 23:36:18 18° WSW visible
